Miscellaneous Local Product
Issued by NWS North Platte, NE

Home | Current Version | Previous Version | Text Only | Print | Product List | Glossary On
Versions: 1 2 3 4 5 6 7 8 9 10 11 12 13 14 15 16 17 18 19 20 21 22 23 24 25 26 27 28 29 30 31 32 33 34 35 36 37 38 39 40 41 42 43 44 45 46 47 48 49 50
000
AXUS43 KLBF 260910
MISLBF


WESTERN AND NORTH CENTRAL NEBRASKA HOURLY WEATHER ROUNDUP
NATIONAL WEATHER SERVICE NORTH PLATTE NE
400 AM CDT SUN APR 26 2015

***STATIONS NOT REPORTING VARIABLES SUCH AS SKY/WEATHER OR
PRESSURE ARE PROVIDED BY THE NEBRASKA DEPARTMENT OF
ROADS...RAWS...AND APRS NETWORKS...AND ARE NOT UNDER
NATIONAL WEATHER SERVICE QUALITY CONTROL***

...OBSERVATIONS IN AND NEAR THE EASTERN PANHANDLE OF NEBRASKA...

CITY           SKY/WX    TMP DP  RH WIND       PRES   REMARKS
PINE RIDGE     CLOUDY    50  47  89 E7        29.86F
CHADRON        FOG       48  47  96 NE8       29.85S VSB 1/2
ALLIANCE       CLOUDY    47  45  93 SE17      29.83R
SIDNEY         RAIN      46  45  96 CALM      29.85R FOG
WHITECLAY        N/A     47  45  93 CALM        N/A
CRESCENT LAKE    N/A     47  46  97 SE9         N/A
BIG SPRINGS      N/A     48  47  95 E8          N/A
$$

...OBSERVATIONS IN NORTH CENTRAL NEBRASKA...

CITY           SKY/WX    TMP DP  RH WIND       PRES   REMARKS
VALENTINE      CLOUDY    47  41  80 S13       29.92R
THEDFORD       CLOUDY    46  42  84 E13       29.91S
AINSWORTH      CLOUDY    46  42  88 SE9       29.92S
O`NEILL        CLOUDY    48  41  75 SE8       29.95R
ORD            CLOUDY    43  40  89 E3        29.91S
BROKEN BOW     CLOUDY    47  42  83 SE10G22   29.89S
BROWNLEE         N/A     48  45  87 E13         N/A
VALENTINE NWR    N/A     45  43  94 SE10        N/A
SPRINGVIEW       N/A     47  43  85 E3          N/A
HALSEY           N/A     44  42  91 E5G12       N/A
BREWSTER         N/A     43  42  97 E6          N/A
ROSE             N/A     42  41  99 E3          N/A
NEWPORT          N/A     45  44  95 CALM        N/A
SARGENT          N/A     45  42  89 E3          N/A
COMSTOCK         N/A     47  44  90 E9          N/A
EWING            N/A     47  41  80 CALM        N/A
$$

...OBSERVATIONS IN SOUTHWEST NEBRASKA AND FAR NORTHEAST COLORADO...

CITY           SKY/WX    TMP DP  RH WIND       PRES   REMARKS
WRAY           CLOUDY   N/A N/A N/A E16       29.84S
HOLYOKE        CLOUDY    46  45  93 E14       29.82F FOG
IMPERIAL       CLOUDY    46  44  93 E14       29.84F FOG
OGALLALA       CLOUDY    47  46  95 E13       29.86S FOG
MCCOOK         CLOUDY    46  44  93 E8        29.87F FOG
LEXINGTON      CLOUDY    46  44  93 E15       29.88F FOG
PAXTON           N/A     48  45  90 E5          N/A
SUTHERLAND       N/A     42  39  89 E6          N/A
BRADY            N/A     45  42  88 CALM        N/A
GOTHENBURG       N/A     45  41  86 E10         N/A
CALLAWAY         N/A     45  43  93 E16         N/A
$$

...NORTH PLATTE AREA...

CITY           SKY/WX    TMP DP  RH WIND       PRES   REMARKS
$$

...SOME WEATHER OBSERVATIONS FROM AROUND THE REGION...

CITY           SKY/WX    TMP DP  RH WIND       PRES   REMARKS
DENVER         TSTM      45  43  93 E15       29.78S
LARAMIE        HVY RAIN  35  34  96 SW5       29.82S FOG     WCI  31
CHEYENNE       CLOUDY    42  40  92 E12       29.81F
SCOTTSBLUFF    CLOUDY    49 N/A N/A S12       29.79R
RAPID CITY     CLOUDY    43  41  93 N17       29.87F
PIERRE         CLOUDY    50  43  77 SE12      29.93R
WINNER         CLOUDY    51  42  71 SE9       29.94R
SIOUX FALLS    PTCLDY    36  34  92 NE5       29.97S WCI  32
OMAHA          CLEAR     44  41  89 NE7       29.94S
GRAND ISLAND   CLOUDY    47  42  83 E9        29.92R
KANSAS CITY    DRIZZLE   48  46  93 NE12      29.86R
WICHITA        CLOUDY    51  47  86 NE17      29.79R
HAYS           CLOUDY    48  41  76 E15G21    29.84R
LIBERAL        CLOUDY    55  48  76 E22G29    29.73R
GOODLAND       LGT RAIN  45  45 100 E17       29.82F FOG
$$



USA.gov is the U.S. government's official web portal to all federal, state and local government web resources and services.